Year,Month,Day,Hour,Minute,Value (Times are PST for windgust in km/hr)
2012,01,22,00,00,20.90
2012,01,22,00,01,11.30
2012,01,22,00,02,14.50
2012,01,22,00,03,22.50
2012,01,22,00,04,22.50
2012,01,22,00,05,19.30
2012,01,22,00,06,20.90
2012,01,22,00,07,19.30
2012,01,22,00,08,14.50
2012,01,22,00,09,17.70
2012,01,22,00,10,22.50
2012,01,22,00,11,24.20
2012,01,22,00,12,25.70
2012,01,22,00,13,22.50
2012,01,22,00,14,22.50
2012,01,22,00,15,24.20
2012,01,22,00,16,22.50
2012,01,22,00,17,20.90
2012,01,22,00,18,24.20
2012,01,22,00,19,32.20
2012,01,22,00,20,29.00
2012,01,22,00,21,22.50
2012,01,22,00,22,20.90
2012,01,22,00,23,22.50
2012,01,22,00,24,25.70
2012,01,22,00,25,22.50
2012,01,22,00,26,20.90
2012,01,22,00,27,25.70
2012,01,22,00,28,24.20
2012,01,22,00,29,19.30
2012,01,22,00,30,24.20
2012,01,22,00,31,16.10
2012,01,22,00,32,11.30
2012,01,22,00,33,12.90
2012,01,22,00,34,20.90
2012,01,22,00,35,24.20
2012,01,22,00,36,12.90
2012,01,22,00,37,22.50
2012,01,22,00,38,17.70
2012,01,22,00,39,20.90
2012,01,22,00,40,22.50
2012,01,22,00,41,14.50
2012,01,22,00,42,19.30
2012,01,22,00,43,22.50
2012,01,22,00,44,22.50
2012,01,22,00,45,17.70
2012,01,22,00,46,32.20
2012,01,22,00,47,20.90
2012,01,22,00,48,24.20
2012,01,22,00,49,24.20
2012,01,22,00,50,20.90
2012,01,22,00,51,16.10
2012,01,22,00,52,14.50
2012,01,22,00,53,14.50
2012,01,22,00,54,14.50
2012,01,22,00,55,22.50
2012,01,22,00,56,24.20
2012,01,22,00,57,20.90
2012,01,22,00,58,37.00
2012,01,22,00,59,25.70
2012,01,22,01,00,32.20
2012,01,22,01,01,25.70
2012,01,22,01,02,29.00
2012,01,22,01,03,22.50
2012,01,22,01,04,20.90
2012,01,22,01,05,19.30
2012,01,22,01,06,12.90
2012,01,22,01,07,12.90
2012,01,22,01,08,14.50
2012,01,22,01,09,12.90
2012,01,22,01,10,22.50
2012,01,22,01,11,20.90
2012,01,22,01,12,22.50
2012,01,22,01,13,19.30
2012,01,22,01,14,25.70
2012,01,22,01,15,14.50
2012,01,22,01,16,12.90
2012,01,22,01,17,30.60
2012,01,22,01,18,20.90
2012,01,22,01,19,20.90
2012,01,22,01,20,11.30
2012,01,22,01,21,9.60
2012,01,22,01,22,20.90
2012,01,22,01,23,19.30
2012,01,22,01,24,22.50
2012,01,22,01,25,20.90
2012,01,22,01,26,20.90
2012,01,22,01,27,20.90
2012,01,22,01,28,6.40
2012,01,22,01,29,17.70
2012,01,22,01,30,17.70
2012,01,22,01,31,22.50
2012,01,22,01,32,17.70
2012,01,22,01,33,14.50
2012,01,22,01,34,19.30
2012,01,22,01,35,17.70
2012,01,22,01,36,17.70
2012,01,22,01,37,24.20
2012,01,22,01,38,19.30
2012,01,22,01,39,12.90
2012,01,22,01,40,9.60
2012,01,22,01,41,19.30
2012,01,22,01,42,14.50
2012,01,22,01,43,20.90
2012,01,22,01,44,16.10
2012,01,22,01,45,19.30
2012,01,22,01,46,19.30
2012,01,22,01,47,12.90
2012,01,22,01,48,12.90
2012,01,22,01,49,14.50
2012,01,22,01,50,16.10
2012,01,22,01,51,11.30
2012,01,22,01,52,19.30
2012,01,22,01,53,20.90
2012,01,22,01,54,20.90
2012,01,22,01,55,12.90
2012,01,22,01,56,9.60
2012,01,22,01,57,8.10
2012,01,22,01,58,9.60
2012,01,22,01,59,12.90
2012,01,22,02,00,12.90
2012,01,22,02,01,17.70
2012,01,22,02,02,17.70
2012,01,22,02,03,9.60
2012,01,22,02,04,19.30
2012,01,22,02,05,20.90
2012,01,22,02,06,11.30
2012,01,22,02,07,12.90
2012,01,22,02,08,14.50
2012,01,22,02,09,17.70
2012,01,22,02,10,17.70
2012,01,22,02,11,12.90
2012,01,22,02,12,16.10
2012,01,22,02,13,19.30
2012,01,22,02,14,20.90
2012,01,22,02,15,29.00
2012,01,22,02,16,24.20
2012,01,22,02,17,19.30
2012,01,22,02,18,14.50
2012,01,22,02,19,14.50
2012,01,22,02,20,12.90
2012,01,22,02,21,20.90
2012,01,22,02,22,22.50
2012,01,22,02,23,11.30
2012,01,22,02,24,20.90
2012,01,22,02,25,22.50
2012,01,22,02,26,17.70
2012,01,22,02,27,17.70
2012,01,22,02,28,17.70
2012,01,22,02,29,16.10
2012,01,22,02,30,17.70
2012,01,22,02,31,17.70
2012,01,22,02,32,14.50
2012,01,22,02,33,14.50
2012,01,22,02,34,17.70
2012,01,22,02,35,20.90
2012,01,22,02,36,24.20
2012,01,22,02,37,24.20
2012,01,22,02,38,25.70
2012,01,22,02,39,24.20
2012,01,22,02,40,25.70
2012,01,22,02,41,20.90
2012,01,22,02,42,20.90
2012,01,22,02,43,22.50
2012,01,22,02,44,20.90
2012,01,22,02,45,17.70
2012,01,22,02,46,22.50
2012,01,22,02,47,16.10
2012,01,22,02,48,20.90
2012,01,22,02,49,20.90
2012,01,22,02,50,17.70
2012,01,22,02,51,17.70
2012,01,22,02,52,12.90
2012,01,22,02,53,20.90
2012,01,22,02,54,14.50
2012,01,22,02,55,14.50
2012,01,22,02,56,12.90
2012,01,22,02,57,16.10
2012,01,22,02,58,17.70
2012,01,22,02,59,20.90
2012,01,22,03,00,17.70
2012,01,22,03,01,19.30
2012,01,22,03,02,14.50
2012,01,22,03,03,22.50
2012,01,22,03,04,17.70
2012,01,22,03,05,19.30
2012,01,22,03,06,20.90
2012,01,22,03,07,19.30
2012,01,22,03,08,16.10
2012,01,22,03,09,17.70
2012,01,22,03,10,14.50
2012,01,22,03,11,17.70
2012,01,22,03,12,16.10
2012,01,22,03,13,12.90
2012,01,22,03,14,12.90
2012,01,22,03,15,17.70
2012,01,22,03,16,17.70
2012,01,22,03,17,16.10
2012,01,22,03,18,19.30
2012,01,22,03,19,22.50
2012,01,22,03,20,20.90
2012,01,22,03,21,22.50
2012,01,22,03,22,30.60
2012,01,22,03,23,25.70
2012,01,22,03,24,29.00
2012,01,22,03,25,17.70
2012,01,22,03,26,25.70
2012,01,22,03,27,16.10
2012,01,22,03,28,17.70
2012,01,22,03,29,24.20
2012,01,22,03,30,22.50
2012,01,22,03,31,20.90
2012,01,22,03,32,24.20
2012,01,22,03,33,24.20
2012,01,22,03,34,12.90
2012,01,22,03,35,19.30
2012,01,22,03,36,20.90
2012,01,22,03,37,20.90
2012,01,22,03,38,20.90
2012,01,22,03,39,24.20
2012,01,22,03,40,24.20
2012,01,22,03,41,29.00
2012,01,22,03,42,30.60
2012,01,22,03,43,24.20
2012,01,22,03,44,22.50
2012,01,22,03,45,12.90
2012,01,22,03,46,19.30
2012,01,22,03,47,22.50
2012,01,22,03,48,22.50
2012,01,22,03,49,20.90
2012,01,22,03,50,20.90
2012,01,22,03,51,27.40
2012,01,22,03,52,20.90
2012,01,22,03,53,20.90
2012,01,22,03,54,25.70
2012,01,22,03,55,30.60
2012,01,22,03,56,11.30
2012,01,22,03,57,27.40
2012,01,22,03,58,29.00
2012,01,22,03,59,25.70
2012,01,22,04,00,33.80
2012,01,22,04,01,33.80
2012,01,22,04,02,29.00
2012,01,22,04,03,30.60
2012,01,22,04,04,33.80
2012,01,22,04,05,30.60
2012,01,22,04,06,32.20
2012,01,22,04,07,20.90
2012,01,22,04,08,24.20
2012,01,22,04,09,24.20
2012,01,22,04,10,30.60
2012,01,22,04,11,24.20
2012,01,22,04,12,22.50
2012,01,22,04,13,30.60
2012,01,22,04,14,35.40
2012,01,22,04,15,24.20
2012,01,22,04,16,30.60
2012,01,22,04,17,40.20
2012,01,22,04,18,30.60
2012,01,22,04,19,25.70
2012,01,22,04,20,24.20
2012,01,22,04,21,19.30
2012,01,22,04,22,30.60
2012,01,22,04,23,30.60
2012,01,22,04,24,38.60
2012,01,22,04,25,37.00
2012,01,22,04,26,32.20
2012,01,22,04,27,24.20
2012,01,22,04,28,27.40
2012,01,22,04,29,32.20
2012,01,22,04,30,22.50
2012,01,22,04,31,19.30
2012,01,22,04,32,25.70
2012,01,22,04,33,33.80
2012,01,22,04,34,35.40
2012,01,22,04,35,29.00
2012,01,22,04,36,30.60
2012,01,22,04,37,37.00
2012,01,22,04,38,40.20
2012,01,22,04,39,37.00
2012,01,22,04,40,38.60
2012,01,22,04,41,30.60
2012,01,22,04,42,30.60
2012,01,22,04,43,38.60
2012,01,22,04,44,32.20
2012,01,22,04,45,25.70
2012,01,22,04,46,25.70
2012,01,22,04,47,19.30
2012,01,22,04,48,20.90
2012,01,22,04,49,32.20
2012,01,22,04,50,25.70
2012,01,22,04,51,24.20
2012,01,22,04,52,24.20
2012,01,22,04,53,22.50
2012,01,22,04,54,20.90
2012,01,22,04,55,27.40
2012,01,22,04,56,24.20
2012,01,22,04,57,32.20
2012,01,22,04,58,30.60
2012,01,22,04,59,45.10
2012,01,22,05,00,38.60
2012,01,22,05,01,40.20
2012,01,22,05,02,35.40
2012,01,22,05,03,35.40
2012,01,22,05,04,33.80
2012,01,22,05,05,30.60
2012,01,22,05,06,24.20
2012,01,22,05,07,11.30
2012,01,22,05,08,20.90
2012,01,22,05,09,35.40
2012,01,22,05,10,22.50
2012,01,22,05,11,38.60
2012,01,22,05,12,22.50
2012,01,22,05,13,32.20
2012,01,22,05,14,43.50
2012,01,22,05,15,37.00
2012,01,22,05,16,33.80
2012,01,22,05,17,20.90
2012,01,22,05,18,24.20
2012,01,22,05,19,22.50
2012,01,22,05,20,37.00
2012,01,22,05,21,32.20
2012,01,22,05,22,35.40
2012,01,22,05,23,30.60
2012,01,22,05,24,33.80
2012,01,22,05,25,33.80
2012,01,22,05,26,27.40
2012,01,22,05,27,35.40
2012,01,22,05,28,27.40
2012,01,22,05,29,32.20
2012,01,22,05,30,45.10
2012,01,22,05,31,33.80
2012,01,22,05,32,25.70
2012,01,22,05,33,35.40
2012,01,22,05,34,48.30
2012,01,22,05,35,35.40
2012,01,22,05,36,38.60
2012,01,22,05,37,48.30
2012,01,22,05,38,25.70
2012,01,22,05,39,43.50
2012,01,22,05,40,45.10
2012,01,22,05,41,51.50
2012,01,22,05,42,48.30
2012,01,22,05,43,29.00
2012,01,22,05,44,43.50
2012,01,22,05,45,43.50
2012,01,22,05,46,46.70
2012,01,22,05,47,30.60
2012,01,22,05,48,59.50
2012,01,22,05,49,40.20
2012,01,22,05,50,43.50
2012,01,22,05,51,38.60
2012,01,22,05,52,40.20
2012,01,22,05,53,43.50
2012,01,22,05,54,40.20
2012,01,22,05,55,43.50
2012,01,22,05,56,51.50
2012,01,22,05,57,45.10
2012,01,22,05,58,49.90
2012,01,22,05,59,56.30
2012,01,22,06,00,45.10
2012,01,22,06,01,61.20
2012,01,22,06,02,56.30
2012,01,22,06,03,56.30
2012,01,22,06,04,43.50
2012,01,22,06,05,53.10
2012,01,22,06,06,37.00
2012,01,22,06,07,40.20
2012,01,22,06,08,41.80
2012,01,22,06,09,53.10
2012,01,22,06,10,57.90
2012,01,22,06,11,59.50
2012,01,22,06,12,41.80
2012,01,22,06,13,51.50
2012,01,22,06,14,53.10
2012,01,22,06,15,45.10
2012,01,22,06,16,56.30
2012,01,22,06,17,45.10
2012,01,22,06,18,43.50
2012,01,22,06,19,46.70
2012,01,22,06,20,48.30
2012,01,22,06,21,45.10
2012,01,22,06,22,49.90
2012,01,22,06,23,37.00
2012,01,22,06,24,56.30
2012,01,22,06,25,53.10
2012,01,22,06,26,51.50
2012,01,22,06,27,54.70
2012,01,22,06,28,43.50
2012,01,22,06,29,48.30
2012,01,22,06,30,45.10
2012,01,22,06,31,43.50
2012,01,22,06,32,59.50
2012,01,22,06,33,53.10
2012,01,22,06,34,56.30
2012,01,22,06,35,51.50
2012,01,22,06,36,48.30
2012,01,22,06,37,54.70
2012,01,22,06,38,35.40
2012,01,22,06,39,56.30
2012,01,22,06,40,40.20
2012,01,22,06,41,59.50
2012,01,22,06,42,41.80
2012,01,22,06,43,43.50
2012,01,22,06,44,37.00
2012,01,22,06,45,45.10
2012,01,22,06,46,54.70
2012,01,22,06,47,67.60
2012,01,22,06,48,74.00
2012,01,22,06,49,59.50
2012,01,22,06,50,56.30
2012,01,22,06,51,54.70
2012,01,22,06,52,62.70
2012,01,22,06,53,57.90
2012,01,22,06,54,49.90
2012,01,22,06,55,40.20
2012,01,22,06,56,46.70
2012,01,22,06,57,48.30
2012,01,22,06,58,48.30
2012,01,22,06,59,53.10
2012,01,22,07,00,48.30
2012,01,22,07,01,41.80
2012,01,22,07,02,62.70
2012,01,22,07,03,51.50
2012,01,22,07,04,61.20
2012,01,22,07,05,57.90
2012,01,22,07,06,45.10
2012,01,22,07,07,53.10
2012,01,22,07,08,51.50
2012,01,22,07,09,66.00
2012,01,22,07,10,56.30
2012,01,22,07,11,43.50
2012,01,22,07,12,41.80
2012,01,22,07,13,49.90
2012,01,22,07,14,46.70
2012,01,22,07,15,54.70
2012,01,22,07,16,59.50
2012,01,22,07,17,35.40
2012,01,22,07,18,41.80
2012,01,22,07,19,37.00
2012,01,22,07,20,49.90
2012,01,22,07,21,51.50
2012,01,22,07,22,48.30
2012,01,22,07,23,51.50
2012,01,22,07,24,56.30
2012,01,22,07,25,54.70
2012,01,22,07,26,48.30
2012,01,22,07,27,49.90
2012,01,22,07,28,49.90
2012,01,22,07,29,40.20
2012,01,22,07,30,46.70
2012,01,22,07,31,56.30
2012,01,22,07,32,46.70
2012,01,22,07,33,35.40
2012,01,22,07,34,35.40
2012,01,22,07,35,66.00
2012,01,22,07,36,45.10
2012,01,22,07,37,51.50
2012,01,22,07,38,45.10
2012,01,22,07,39,45.10
2012,01,22,07,40,35.40
2012,01,22,07,41,51.50
2012,01,22,07,42,41.80
2012,01,22,07,43,40.20
2012,01,22,07,44,43.50
2012,01,22,07,45,61.20
2012,01,22,07,46,49.90
2012,01,22,07,47,29.00
2012,01,22,07,48,56.30
2012,01,22,07,49,57.90
2012,01,22,07,50,53.10
2012,01,22,07,51,53.10
2012,01,22,07,52,53.10
2012,01,22,07,53,38.60
2012,01,22,07,54,49.90
2012,01,22,07,55,51.50
2012,01,22,07,56,46.70
2012,01,22,07,57,53.10
2012,01,22,07,58,56.30
2012,01,22,07,59,51.50
2012,01,22,08,00,54.70
2012,01,22,08,01,41.80
2012,01,22,08,02,61.20
2012,01,22,08,03,59.50
2012,01,22,08,04,43.50
2012,01,22,08,05,38.60
2012,01,22,08,06,45.10
2012,01,22,08,07,46.70
2012,01,22,08,08,53.10
2012,01,22,08,09,56.30
2012,01,22,08,10,53.10
2012,01,22,08,11,54.70
2012,01,22,08,12,48.30
2012,01,22,08,13,59.50
2012,01,22,08,14,61.20
2012,01,22,08,15,57.90
2012,01,22,08,16,72.40
2012,01,22,08,17,61.20
2012,01,22,08,18,51.50
2012,01,22,08,19,57.90
2012,01,22,08,20,51.50
2012,01,22,08,21,46.70
2012,01,22,08,22,77.30
2012,01,22,08,23,45.10
2012,01,22,08,24,51.50
2012,01,22,08,25,56.30
2012,01,22,08,26,48.30
2012,01,22,08,27,49.90
2012,01,22,08,28,51.50
2012,01,22,08,29,51.50
2012,01,22,08,30,61.20
2012,01,22,08,31,66.00
2012,01,22,08,32,51.50
2012,01,22,08,33,56.30
2012,01,22,08,34,40.20
2012,01,22,08,35,53.10
2012,01,22,08,36,74.00
2012,01,22,08,37,72.40
2012,01,22,08,38,61.20
2012,01,22,08,39,48.30
2012,01,22,08,40,59.50
2012,01,22,08,41,41.80
2012,01,22,08,42,57.90
2012,01,22,08,43,48.30
2012,01,22,08,44,57.90
2012,01,22,08,45,54.70
2012,01,22,08,46,37.00
2012,01,22,08,47,64.40
2012,01,22,08,48,75.60
2012,01,22,08,49,56.30
2012,01,22,08,50,46.70
2012,01,22,08,51,59.50
2012,01,22,08,52,62.70
2012,01,22,08,53,61.20
2012,01,22,08,54,54.70
2012,01,22,08,55,56.30
2012,01,22,08,56,64.40
2012,01,22,08,57,59.50
2012,01,22,08,58,49.90
2012,01,22,08,59,66.00
2012,01,22,09,00,64.40
2012,01,22,09,01,74.00
2012,01,22,09,02,78.80
2012,01,22,09,03,69.20
2012,01,22,09,04,62.70
2012,01,22,09,05,64.40
2012,01,22,09,06,80.50
2012,01,22,09,07,51.50
2012,01,22,09,08,74.00
2012,01,22,09,09,74.00
2012,01,22,09,10,70.80
2012,01,22,09,11,66.00
2012,01,22,09,12,57.90
2012,01,22,09,13,61.20
2012,01,22,09,14,56.30
2012,01,22,09,15,49.90
2012,01,22,09,16,67.60
2012,01,22,09,17,61.20
2012,01,22,09,18,61.20
2012,01,22,09,19,49.90
2012,01,22,09,20,69.20
2012,01,22,09,21,78.80
2012,01,22,09,22,45.10
2012,01,22,09,23,54.70
2012,01,22,09,24,62.70
2012,01,22,09,25,67.60
2012,01,22,09,26,49.90
2012,01,22,09,27,53.10
2012,01,22,09,28,46.70
2012,01,22,09,29,66.00
2012,01,22,09,30,64.40
2012,01,22,09,31,69.20
2012,01,22,09,32,59.50
2012,01,22,09,33,37.00
2012,01,22,09,34,59.50
2012,01,22,09,35,59.50
2012,01,22,09,36,69.20
2012,01,22,09,37,64.40
2012,01,22,09,38,53.10
2012,01,22,09,39,51.50
2012,01,22,09,40,80.50
2012,01,22,09,41,53.10
2012,01,22,09,42,64.40
2012,01,22,09,43,38.60
2012,01,22,09,44,69.20
2012,01,22,09,45,67.60
2012,01,22,09,46,72.40
2012,01,22,09,47,64.40
2012,01,22,09,48,69.20
2012,01,22,09,49,69.20
2012,01,22,09,50,59.50
2012,01,22,09,51,75.60
2012,01,22,09,52,57.90
2012,01,22,09,53,62.70
2012,01,22,09,54,82.10
2012,01,22,09,55,70.80
2012,01,22,09,56,77.30
2012,01,22,09,57,64.40
2012,01,22,09,58,57.90
2012,01,22,09,59,53.10
2012,01,22,10,00,67.60
2012,01,22,10,01,75.60
2012,01,22,10,02,72.40
2012,01,22,10,03,57.90
2012,01,22,10,04,41.80
2012,01,22,10,05,56.30
2012,01,22,10,06,56.30
2012,01,22,10,07,49.90
2012,01,22,10,08,56.30
2012,01,22,10,09,70.80
2012,01,22,10,10,62.70
2012,01,22,10,11,57.90
2012,01,22,10,12,62.70
2012,01,22,10,13,82.10
2012,01,22,10,14,86.90
2012,01,22,10,15,61.20
2012,01,22,10,16,53.10
2012,01,22,10,17,56.30
2012,01,22,10,18,53.10
2012,01,22,10,19,66.00
2012,01,22,10,20,59.50
2012,01,22,10,21,53.10
2012,01,22,10,22,54.70
2012,01,22,10,23,59.50
2012,01,22,10,24,64.40
2012,01,22,10,25,69.20
2012,01,22,10,26,61.20
2012,01,22,10,27,51.50
2012,01,22,10,28,59.50
2012,01,22,10,29,54.70
2012,01,22,10,30,72.40
2012,01,22,10,31,53.10
2012,01,22,10,32,57.90
2012,01,22,10,33,53.10
2012,01,22,10,34,40.20
2012,01,22,10,35,70.80
2012,01,22,10,36,90.10
2012,01,22,10,37,72.40
2012,01,22,10,38,72.40
2012,01,22,10,39,74.00
2012,01,22,10,40,75.60
2012,01,22,10,41,77.30
2012,01,22,10,42,67.60
2012,01,22,10,43,59.50
2012,01,22,10,44,66.00
2012,01,22,10,45,70.80
2012,01,22,10,46,62.70
2012,01,22,10,47,72.40
2012,01,22,10,48,74.00
2012,01,22,10,49,67.60
2012,01,22,10,50,66.00
2012,01,22,10,51,64.40
2012,01,22,10,52,62.70
2012,01,22,10,53,66.00
2012,01,22,10,54,67.60
2012,01,22,10,55,70.80
2012,01,22,10,56,61.20
2012,01,22,10,57,75.60
2012,01,22,10,58,72.40
2012,01,22,10,59,70.80
2012,01,22,11,00,62.70
2012,01,22,11,01,56.30
2012,01,22,11,02,72.40
2012,01,22,11,03,75.60
2012,01,22,11,04,45.10
2012,01,22,11,05,61.20
2012,01,22,11,06,67.60
2012,01,22,11,07,64.40
2012,01,22,11,08,59.50
2012,01,22,11,09,61.20
2012,01,22,11,10,54.70
2012,01,22,11,11,64.40
2012,01,22,11,12,57.90
2012,01,22,11,13,57.90
2012,01,22,11,14,56.30
2012,01,22,11,15,64.40
2012,01,22,11,16,48.30
2012,01,22,11,17,46.70
2012,01,22,11,18,45.10
2012,01,22,11,19,70.80
2012,01,22,11,20,57.90
2012,01,22,11,21,59.50
2012,01,22,11,22,61.20
2012,01,22,11,23,57.90
2012,01,22,11,24,80.50
2012,01,22,11,25,53.10
2012,01,22,11,26,67.60
2012,01,22,11,27,69.20
2012,01,22,11,28,53.10
2012,01,22,11,29,61.20
2012,01,22,11,30,61.20
2012,01,22,11,31,51.50
2012,01,22,11,32,59.50
2012,01,22,11,33,53.10
2012,01,22,11,34,61.20
2012,01,22,11,35,57.90
2012,01,22,11,36,56.30
2012,01,22,11,37,59.50
2012,01,22,11,38,53.10
2012,01,22,11,52,53.10
2012,01,22,11,53,70.80
2012,01,22,11,54,62.70
2012,01,22,11,55,62.70
2012,01,22,11,56,57.90
2012,01,22,11,57,59.50
2012,01,22,11,58,59.50
2012,01,22,11,59,51.50
2012,01,22,12,00,49.90
2012,01,22,12,01,48.30
2012,01,22,12,02,67.60
2012,01,22,12,03,48.30
2012,01,22,12,04,61.20
2012,01,22,12,05,41.80
2012,01,22,12,06,57.90
2012,01,22,12,07,77.30
2012,01,22,12,08,66.00
2012,01,22,12,09,49.90
2012,01,22,12,10,61.20
2012,01,22,12,11,51.50
2012,01,22,12,12,49.90
2012,01,22,12,13,51.50
2012,01,22,12,14,56.30
2012,01,22,12,15,49.90
2012,01,22,12,16,62.70
2012,01,22,12,17,64.40
2012,01,22,12,18,69.20
2012,01,22,12,19,45.10
2012,01,22,12,20,51.50
2012,01,22,12,21,62.70
2012,01,22,12,22,51.50
2012,01,22,12,23,38.60
2012,01,22,12,24,61.20
2012,01,22,12,25,61.20
2012,01,22,12,26,62.70
2012,01,22,12,27,80.50
2012,01,22,12,28,72.40
2012,01,22,12,29,77.30
2012,01,22,12,30,61.20
2012,01,22,12,31,56.30
2012,01,22,12,32,61.20
2012,01,22,12,33,69.20
2012,01,22,12,34,62.70
2012,01,22,12,35,74.00
2012,01,22,12,36,54.70
2012,01,22,12,37,57.90
2012,01,22,12,38,37.00
2012,01,22,12,39,45.10
2012,01,22,12,40,48.30
2012,01,22,12,41,51.50
2012,01,22,12,42,35.40
2012,01,22,12,43,53.10
2012,01,22,12,44,61.20
2012,01,22,12,45,51.50
2012,01,22,12,46,53.10
2012,01,22,12,47,54.70
2012,01,22,12,48,45.10
2012,01,22,12,49,49.90
2012,01,22,12,50,56.30
2012,01,22,12,51,53.10
2012,01,22,12,52,57.90
2012,01,22,12,53,56.30
2012,01,22,12,54,57.90
2012,01,22,12,55,51.50
2012,01,22,12,56,56.30
2012,01,22,12,57,49.90
2012,01,22,12,58,35.40
2012,01,22,12,59,70.80
2012,01,22,13,00,54.70
2012,01,22,13,01,59.50
2012,01,22,13,02,46.70
2012,01,22,13,03,49.90
2012,01,22,13,04,53.10
2012,01,22,13,05,48.30
2012,01,22,13,06,64.40
2012,01,22,13,07,49.90
2012,01,22,13,08,48.30
2012,01,22,13,09,57.90
2012,01,22,13,10,56.30
2012,01,22,13,11,54.70
2012,01,22,13,12,49.90
2012,01,22,13,13,59.50
2012,01,22,13,14,59.50
2012,01,22,13,15,54.70
2012,01,22,13,16,67.60
2012,01,22,13,17,43.50
2012,01,22,13,18,46.70
2012,01,22,13,19,53.10
2012,01,22,13,20,54.70
2012,01,22,13,21,51.50
2012,01,22,13,22,46.70
2012,01,22,13,23,38.60
2012,01,22,13,24,53.10
2012,01,22,13,25,46.70
2012,01,22,13,26,67.60
2012,01,22,13,27,49.90
2012,01,22,13,28,40.20
2012,01,22,13,29,51.50
2012,01,22,13,30,57.90
2012,01,22,13,31,61.20
2012,01,22,13,32,69.20
2012,01,22,13,33,59.50
2012,01,22,13,34,70.80
2012,01,22,13,35,66.00
2012,01,22,13,36,48.30
2012,01,22,13,37,64.40
2012,01,22,13,38,54.70
2012,01,22,13,39,61.20
2012,01,22,13,40,61.20
2012,01,22,13,41,41.80
2012,01,22,13,42,61.20
2012,01,22,13,43,49.90
2012,01,22,13,44,56.30
2012,01,22,13,45,48.30
2012,01,22,13,46,51.50
2012,01,22,13,47,64.40
2012,01,22,13,48,56.30
2012,01,22,13,49,49.90
2012,01,22,13,50,53.10
2012,01,22,13,51,48.30
2012,01,22,13,52,51.50
2012,01,22,13,53,66.00
2012,01,22,13,54,66.00
2012,01,22,13,55,59.50
2012,01,22,13,56,46.70
2012,01,22,13,57,56.30
2012,01,22,13,58,78.80
2012,01,22,13,59,51.50
2012,01,22,14,00,49.90
2012,01,22,14,01,59.50
2012,01,22,14,02,70.80
2012,01,22,14,03,57.90
2012,01,22,14,04,62.70
2012,01,22,14,05,74.00
2012,01,22,14,06,57.90
2012,01,22,14,07,61.20
2012,01,22,14,08,66.00
2012,01,22,14,09,49.90
2012,01,22,14,10,66.00
2012,01,22,14,11,70.80
2012,01,22,14,12,72.40
2012,01,22,14,13,66.00
2012,01,22,14,14,54.70
2012,01,22,14,15,53.10
2012,01,22,14,16,59.50
2012,01,22,14,17,56.30
2012,01,22,14,18,64.40
2012,01,22,14,19,46.70
2012,01,22,14,20,48.30
2012,01,22,14,21,67.60
2012,01,22,14,22,66.00
2012,01,22,14,23,69.20
2012,01,22,14,24,56.30
2012,01,22,14,25,70.80
2012,01,22,14,26,54.70
2012,01,22,14,27,57.90
2012,01,22,14,28,53.10
2012,01,22,14,29,61.20
2012,01,22,14,30,57.90
2012,01,22,14,31,54.70
2012,01,22,14,32,54.70
2012,01,22,14,33,45.10
2012,01,22,14,34,33.80
2012,01,22,14,35,43.50
2012,01,22,14,36,67.60
2012,01,22,14,37,59.50
2012,01,22,14,38,51.50
2012,01,22,14,39,61.20
2012,01,22,14,40,57.90
2012,01,22,14,41,56.30
2012,01,22,14,42,48.30
2012,01,22,14,43,46.70
2012,01,22,14,44,53.10
2012,01,22,14,45,67.60
2012,01,22,14,46,56.30
2012,01,22,14,47,53.10
2012,01,22,14,48,57.90
2012,01,22,14,49,46.70
2012,01,22,14,50,48.30
2012,01,22,14,51,59.50
2012,01,22,14,52,54.70
2012,01,22,14,53,49.90
2012,01,22,14,54,49.90
2012,01,22,14,55,64.40
2012,01,22,14,56,45.10
2012,01,22,14,57,62.70
2012,01,22,14,58,64.40
2012,01,22,14,59,66.00
2012,01,22,15,00,53.10
2012,01,22,15,01,51.50
2012,01,22,15,02,33.80
2012,01,22,15,03,59.50
2012,01,22,15,04,59.50
2012,01,22,15,05,51.50
2012,01,22,15,06,57.90
2012,01,22,15,07,69.20
2012,01,22,15,08,57.90
2012,01,22,15,09,46.70
2012,01,22,15,10,41.80
2012,01,22,15,11,49.90
2012,01,22,15,12,49.90
2012,01,22,15,13,59.50
2012,01,22,15,14,37.00
2012,01,22,15,15,64.40
2012,01,22,15,16,61.20
2012,01,22,15,17,53.10
2012,01,22,15,18,70.80
2012,01,22,15,19,69.20
2012,01,22,15,20,54.70
2012,01,22,15,21,53.10
2012,01,22,15,22,56.30
2012,01,22,15,23,41.80
2012,01,22,15,24,43.50
2012,01,22,15,25,46.70
2012,01,22,15,26,51.50
2012,01,22,15,27,61.20
2012,01,22,15,28,41.80
2012,01,22,15,29,37.00
2012,01,22,15,30,43.50
2012,01,22,15,31,51.50
2012,01,22,15,32,62.70
2012,01,22,15,33,67.60
2012,01,22,15,34,53.10
2012,01,22,15,35,51.50
2012,01,22,15,36,43.50
2012,01,22,15,37,35.40
2012,01,22,15,38,32.20
2012,01,22,15,39,48.30
2012,01,22,15,40,56.30
2012,01,22,15,41,45.10
2012,01,22,15,42,45.10
2012,01,22,15,43,33.80
2012,01,22,15,44,38.60
2012,01,22,15,45,49.90
2012,01,22,15,46,48.30
2012,01,22,15,47,33.80
2012,01,22,15,48,49.90
2012,01,22,15,49,46.70
2012,01,22,15,50,43.50
2012,01,22,15,51,46.70
2012,01,22,15,52,43.50
2012,01,22,15,53,46.70
2012,01,22,15,54,38.60
2012,01,22,15,55,45.10
2012,01,22,15,56,37.00
2012,01,22,15,57,45.10
2012,01,22,15,58,40.20
2012,01,22,15,59,38.60
2012,01,22,16,00,45.10
2012,01,22,16,01,46.70
2012,01,22,16,02,43.50
2012,01,22,16,03,38.60
2012,01,22,16,04,29.00
2012,01,22,16,05,35.40
2012,01,22,16,06,30.60
2012,01,22,16,07,32.20
2012,01,22,16,08,25.70
2012,01,22,16,09,25.70
2012,01,22,16,10,30.60
2012,01,22,16,11,35.40
2012,01,22,16,12,35.40
2012,01,22,16,13,40.20
2012,01,22,16,14,25.70
2012,01,22,16,15,29.00
2012,01,22,16,16,24.20
2012,01,22,16,17,17.70
2012,01,22,16,18,32.20
2012,01,22,16,19,27.40
2012,01,22,16,20,24.20
2012,01,22,16,21,19.30
2012,01,22,16,22,19.30
2012,01,22,16,23,17.70
2012,01,22,16,24,11.30
2012,01,22,16,25,11.30
2012,01,22,16,26,16.10
2012,01,22,16,27,19.30
2012,01,22,16,28,20.90
2012,01,22,16,29,30.60
2012,01,22,16,30,24.20
2012,01,22,16,31,16.10
2012,01,22,16,32,12.90
2012,01,22,16,33,25.70
2012,01,22,16,34,9.60
2012,01,22,16,35,9.60
2012,01,22,16,36,8.10
2012,01,22,16,37,16.10
2012,01,22,16,38,12.90
2012,01,22,16,39,12.90
2012,01,22,16,40,19.30
2012,01,22,16,41,12.90
2012,01,22,16,42,3.20
2012,01,22,16,43,8.10
2012,01,22,16,44,1.60
2012,01,22,16,45,4.80
2012,01,22,16,46,3.20
2012,01,22,16,49,6.40
2012,01,22,16,50,4.80
2012,01,22,16,51,6.40
2012,01,22,16,52,9.60
2012,01,22,16,53,8.10
2012,01,22,16,54,6.40
2012,01,22,16,55,9.60
2012,01,22,16,56,11.30
2012,01,22,16,57,12.90
2012,01,22,16,58,22.50
2012,01,22,16,59,17.70
2012,01,22,17,00,11.30
2012,01,22,17,01,12.90
2012,01,22,17,02,8.10
2012,01,22,17,03,9.60
2012,01,22,17,04,16.10
2012,01,22,17,05,12.90
2012,01,22,17,06,12.90
2012,01,22,17,07,12.90
2012,01,22,17,08,22.50
2012,01,22,17,09,17.70
2012,01,22,17,10,24.20
2012,01,22,17,11,38.60
2012,01,22,17,12,33.80
2012,01,22,17,13,20.90
2012,01,22,17,14,29.00
2012,01,22,17,15,33.80
2012,01,22,17,16,33.80
2012,01,22,17,17,35.40
2012,01,22,17,18,38.60
2012,01,22,17,19,20.90
2012,01,22,17,20,16.10
2012,01,22,17,21,33.80
2012,01,22,17,22,24.20
2012,01,22,17,23,19.30
2012,01,22,17,24,16.10
2012,01,22,17,25,20.90
2012,01,22,17,26,22.50
2012,01,22,17,27,35.40
2012,01,22,17,28,16.10
2012,01,22,17,29,12.90
2012,01,22,17,30,16.10
2012,01,22,17,31,14.50
2012,01,22,17,32,11.30
2012,01,22,17,33,12.90
2012,01,22,17,34,16.10
2012,01,22,17,35,20.90